This is the latest recevied weather packets stored in our database for station/object DG3RAP-11. If no packets are shown the sender has not sent any weather packets the latest 1 day(s).
| Time | Temp. | Humidity | Pressure | Rain* | Wind** | Luminosity | Snow |
|---|---|---|---|---|---|---|---|
| 1777991223 | 24.44° C | 34% | 1004.8 hPa | 0 mm | 1.34 m/s, 29° | - | - |
| 1777990683 | 25.56° C | 33% | 1005.1 hPa | 0 mm | 0 m/s | - | - |
| 1777990143 | 25° C | 32% | 1004.9 hPa | 0 mm | 0.45 m/s, 33° | - | - |
| 1777989603 | 25° C | 33% | 1005 hPa | 0 mm | 0 m/s | - | - |
| 1777989243 | 25° C | 31% | 1005.1 hPa | 0 mm | 0.45 m/s, 336° | - | - |
| 1777988703 | 25.56° C | 30% | 1005.2 hPa | 0 mm | 0 m/s | - | - |
| 1777988163 | 25.56° C | 29% | 1005.4 hPa | 0 mm | 2.24 m/s, 284° | - | - |
| 1777987623 | 26.11° C | 28% | 1005.3 hPa | 0 mm | 0.45 m/s, 280° | - | - |
| 1777987083 | 25.56° C | 28% | 1005.5 hPa | 0 mm | 0.89 m/s, 286° | - | - |
| 1777986543 | 25.56° C | 28% | 1005.7 hPa | 0 mm | 0.89 m/s, 46° | - | - |
| 1777986003 | 24.44° C | 31% | 1005.7 hPa | 0 mm | 0.89 m/s, 22° | - | - |
| 1777985643 | 25.56° C | 30% | 1005.4 hPa | 0 mm | 0.45 m/s, 308° | - | - |
| 1777985103 | 24.44° C | 31% | 1005.8 hPa | 0 mm | 1.79 m/s, 279° | - | - |
| 1777984563 | 24.44° C | 32% | 1005.8 hPa | 0 mm | 1.79 m/s, 291° | - | - |
| 1777984023 | 23.89° C | 31% | 1005.8 hPa | 0 mm | 0.89 m/s, 54° | - | - |
| 1777983483 | 24.44° C | 29% | 1006 hPa | 0 mm | 0.89 m/s, 331° | - | - |
| 1777982943 | 25.56° C | 27% | 1006.2 hPa | 0 mm | 0.89 m/s, 314° | - | - |
| 1777982403 | 25.56° C | 29% | 1006 hPa | 0 mm | 0.89 m/s, 312° | - | - |
| 1777982043 | 25.56° C | 31% | 1006 hPa | 0 mm | 1.79 m/s, 315° | - | - |
| 1777981503 | 25.56° C | 32% | 1006.3 hPa | 0 mm | 0.89 m/s, 311° | - | - |
| 1777980963 | 24.44° C | 33% | 1006.2 hPa | 0 mm | 1.34 m/s, 297° | - | - |
| 1777980423 | 25° C | 34% | 1006.4 hPa | 0 mm | 0.89 m/s, 275° | - | - |
| 1777979883 | 24.44° C | 34% | 1006.5 hPa | 0 mm | 0.45 m/s, 334° | - | - |
| 1777979343 | 23.89° C | 35% | 1006.7 hPa | 0 mm | 2.68 m/s, 282° | - | - |
| 1777978803 | 25° C | 38% | 1006.7 hPa | 0 mm | 0.89 m/s, 304° | - | - |
* Rain latest hour (hover to see other rain measurements)
** Current wind speed in m/s (hover to see current wind gust speed)